Regional Weather Roundup
Issued by NWS

Home | Current Version | Previous Version | Graphics & Text | Print | Product List | Glossary On
Versions: 1 2 3 4 5 6 7 8 9 10 11 12 13 14 15 16 17 18 19 20 21 22 23 24 25 26 27 28 29 30 31 32 33 34 35 36 37 38 39 40 41 42 43 44 45 46 47 48 49 50
000
ASUS43 KOAX 230502
RWRNE

WEATHER ROUNDUP FOR NEBRASKA
NATIONAL WEATHER SERVICE OMAHA NE
1100 PM CST WED NOV 22 2017

NOTES: SATELLITE DATA IS BEING USED TO AUGMENT CLOUD COVER ABOVE
       12000 FEET.
       "FAIR" INDICATES FEW OR NO CLOUDS BELOW 12,000 FEET WITH NO
       SIGNIFICANT WEATHER AND/OR OBSTRUCTIONS TO VISIBILITY.


NEZ001>004-019>022-054>056-230600-
NEBRASKA PANHANDLE

CITY           SKY/WX    TMP DP  RH WIND       PRES   REMARKS
SCOTTSBLUFF    CLOUDY    42  36  79 NW6       30.18F
ALLIANCE       CLOUDY    37  35  92 W12       30.16R WCI  29
CHADRON        PTCLDY    44  36  73 W5        30.13S
GORDON         CLOUDY    45  35  69 W7        30.11F
KIMBALL        CLOUDY    50  39  67 NW13      30.22R
SIDNEY         CLEAR     43  37  79 NW12      30.19S
$$

NEZ057>060-069>072-079>082-230600-
SOUTHWEST NEBRASKA

CITY           SKY/WX    TMP DP  RH WIND       PRES   REMARKS
NORTH PLATTE   CLEAR     36  32  85 NW7       30.10R WCI  30
IMPERIAL       CLOUDY    50  39  66 NW13      30.13R
LEXINGTON      CLEAR     37  31  81 NW8       30.08S WCI  30
MCCOOK         CLOUDY    41  35  79 NW6       30.10R
OGALLALA       CLEAR     48  39  72 W9        30.12R
$$

NEZ005>010-023>029-035>040-094-230600-
NORTH CENTRAL NEBRASKA

CITY           SKY/WX    TMP DP  RH WIND       PRES   REMARKS
VALENTINE      CLEAR     45  37  73 W9        30.06R
AINSWORTH      CLEAR     41  35  79 W8        30.05S
BROKEN BOW     CLEAR     38  31  76 CALM      30.06S
O`NEILL        CLEAR     45  37  72 W6        30.01S
ORD            CLEAR     35  29  78 NW3       30.03S
THEDFORD       CLEAR     44  35  70 W5        30.10S
$$

NEZ041-046>049-061>064-073>077-083>087-230600-
SOUTH CENTRAL NEBRASKA

CITY           SKY/WX    TMP DP  RH WIND       PRES   REMARKS
GRAND ISLAND   CLEAR     40  30  67 SW9       30.04F WCI  34
AURORA         CLEAR     37  24  59 W9        30.04S WCI  30
HASTINGS       CLOUDY    42  26  53 SW6       30.05F
HEBRON         PTCLDY    42  22  46 SW8       30.05F
HOLDREGE       CLEAR     48  35  60 W6        30.07S
KEARNEY        CLEAR     44  32  62 W5        30.06S
YORK           CLEAR     39  25  56 SW10      30.03F WCI  32
$$

NEZ011>018-030>034-042>045-230600-
NORTHEAST NEBRASKA

CITY           SKY/WX    TMP DP  RH WIND       PRES   REMARKS
NORFOLK        CLEAR     40  27  59 CALM      29.98F
ALBION         CLEAR     42  31  67 NW6       30.01S
BLAIR          CLEAR     37  22  54 S10       30.00F WCI  30
COLUMBUS       CLEAR     42  24  49 SW8       30.02F
FREMONT        CLEAR     37  22  56 CALM      30.01F
TEKAMAH        CLEAR     34  20  56 S12       30.01F WCI  25
WAYNE          CLEAR     35  23  61 S3        29.97F
$$

NEZ050>053-065>068-078-088>093-230600-
SOUTHEAST NEBRASKA

CITY           SKY/WX    TMP DP  RH WIND       PRES   REMARKS
LINCOLN        CLOUDY    40  22  48 S6        30.04F
OMAHA EPPLEY   CLEAR     32  20  61 SE12      30.03F WCI  23
BEATRICE       CLEAR     41  22  47 SW10      30.05F
FALLS CITY     CLOUDY    36  19  50 S7        30.07F WCI  30
NEBRASKA CITY  PTCLDY    34  22  60 S7        30.05R WCI  28
PLATTSMOUTH    CLEAR     34  20  57 S6        30.04S WCI  29
$$

NEZ044-045-051>053-067-230600-
OMAHA AREA

CITY           SKY/WX    TMP DP  RH WIND       PRES   REMARKS
OMAHA EPPLEY   CLEAR     32  20  61 SE12      30.03F WCI  23
BLAIR          CLEAR     37  22  54 S10       30.00F WCI  30
FREMONT        CLEAR     37  22  56 CALM      30.01F
MILLARD        CLEAR     36  22  57 SE3       30.03F
OFFUTT AFB     CLEAR     29  20  67 E5        30.03F WCI  24
PLATTSMOUTH    CLEAR     34  20  57 S6        30.04S WCI  29
WAHOO          FAIR      34  21  59 S6        30.02F WCI  29
$$




USA.gov is the U.S. government's official web portal to all federal, state and local government web resources and services.